• En España
  • Lista de países
  • Para 7 días
  • Temperatura del agua
  • Mapa Satelital
  • El tiempo en el mapa
  • Informadores
  • user-avatar
    Iniciar sesión

    Tiempo cada hora Dubeninki

    Hoy, 24 Junio, Domingo

    Tiempo Temperatura Precipitaciones Viento Presión Humedad
    00:00 +7°C° 0 mm 2 mps 739 mmHg 94%
    01:00 +7°C° 0 mm 2 mps 739 mmHg 94%
    02:00 +6°C° 0 mm 2 mps 739 mmHg 95%
    03:00 +6°C° 0 mm 2 mps 739 mmHg 95%
    04:00 +6°C° 0 mm 2 mps 738 mmHg 95%
    05:00 +6°C° 0 mm 2 mps 738 mmHg 94%
    06:00 +8°C° 0 mm 2 mps 738 mmHg 89%
    07:00 +10°C° 0 mm 2 mps 738 mmHg 83%
    08:00 +11°C° 0 mm 3 mps 738 mmHg 78%
    09:00 +12°C° 0,2 mm 3 mps 738 mmHg 76%
    10:00 +13°C° 0,2 mm 3 mps 738 mmHg 75%
    11:00 +13°C° 0,2 mm 3 mps 738 mmHg 73%
    12:00 +13°C° 0,4 mm 4 mps 738 mmHg 75%
    13:00 +13°C° 0,4 mm 4 mps 738 mmHg 77%
    14:00 +13°C° 0,4 mm 4 mps 738 mmHg 79%
    15:00 +13°C° 0,3 mm 4 mps 738 mmHg 80%
    16:00 +13°C° 0,3 mm 4 mps 738 mmHg 80%
    17:00 +13°C° 0,3 mm 4 mps 738 mmHg 81%
    18:00 +13°C° 0,2 mm 3 mps 739 mmHg 83%
    19:00 +12°C° 0,2 mm 3 mps 739 mmHg 86%
    20:00 +12°C° 0,2 mm 2 mps 739 mmHg 88%
    21:00 +12°C° 0,1 mm 2 mps 739 mmHg 90%
    22:00 +10°C° 0,1 mm 2 mps 739 mmHg 92%
    23:00 +9°C° 0,1 mm 3 mps 740 mmHg 93%

    Mañana, 25 Junio, Lunes

    Tiempo Temperatura Precipitaciones Viento Presión Humedad
    00:00 +9°C° 0,1 mm 3 mps 740 mmHg 94%
    01:00 +9°C° 0,1 mm 3 mps 740 mmHg 95%
    02:00 +8°C° 0,1 mm 3 mps 740 mmHg 97%
    03:00 +9°C° 0,3 mm 3 mps 740 mmHg 97%
    04:00 +9°C° 0,3 mm 3 mps 739 mmHg 97%
    05:00 +9°C° 0,3 mm 3 mps 739 mmHg 97%
    06:00 +10°C° 0,5 mm 3 mps 740 mmHg 95%
    07:00 +10°C° 0,5 mm 3 mps 740 mmHg 94%
    08:00 +11°C° 0,5 mm 4 mps 740 mmHg 92%
    09:00 +11°C° 0,7 mm 4 mps 740 mmHg 92%
    10:00 +12°C° 0,7 mm 5 mps 740 mmHg 91%
    11:00 +12°C° 0,7 mm 5 mps 740 mmHg 90%
    12:00 +12°C° 0,4 mm 5 mps 740 mmHg 90%
    13:00 +13°C° 0,4 mm 5 mps 740 mmHg 89%
    14:00 +13°C° 0,4 mm 5 mps 740 mmHg 88%
    15:00 +14°C° 0,3 mm 5 mps 740 mmHg 85%
    16:00 +14°C° 0,3 mm 5 mps 740 mmHg 83%
    17:00 +14°C° 0,3 mm 5 mps 740 mmHg 80%
    18:00 +14°C° 0,2 mm 4 mps 740 mmHg 82%
    19:00 +13°C° 0,2 mm 4 mps 741 mmHg 85%
    20:00 +12°C° 0,2 mm 3 mps 741 mmHg 87%
    21:00 +12°C° 0,2 mm 4 mps 741 mmHg 87%
    22:00 +12°C° 0,2 mm 4 mps 741 mmHg 88%
    23:00 +12°C° 0,2 mm 4 mps 741 mmHg 88%

    Pasado mañana, 26 Junio, Martes

    Tiempo Temperatura Precipitaciones Viento Presión Humedad
    00:00 +11°C° 0,3 mm 4 mps 741 mmHg 90%
    01:00 +11°C° 0,3 mm 4 mps 741 mmHg 92%
    02:00 +11°C° 0,3 mm 3 mps 741 mmHg 95%
    03:00 +11°C° 0,2 mm 3 mps 741 mmHg 95%
    04:00 +10°C° 0,2 mm 3 mps 741 mmHg 96%
    05:00 +10°C° 0,2 mm 3 mps 741 mmHg 97%
    06:00 +10°C° 0,1 mm 3 mps 742 mmHg 95%
    07:00 +11°C° 0,1 mm 3 mps 742 mmHg 93%
    08:00 +11°C° 0,1 mm 3 mps 742 mmHg 92%
    09:00 +12°C° 0,2 mm 3 mps 742 mmHg 88%
    10:00 +13°C° 0,2 mm 3 mps 743 mmHg 85%
    11:00 +14°C° 0,2 mm 3 mps 743 mmHg 81%
    12:00 +16°C° 0,4 mm 3 mps 743 mmHg 79%
    13:00 +17°C° 0,4 mm 3 mps 743 mmHg 76%
    14:00 +18°C° 0,4 mm 3 mps 743 mmHg 73%
    15:00 +18°C° 0,6 mm 3 mps 743 mmHg 75%
    16:00 +18°C° 0,6 mm 3 mps 743 mmHg 77%
    17:00 +18°C° 0,6 mm 3 mps 743 mmHg 79%
    18:00 +17°C° 0,4 mm 3 mps 743 mmHg 83%
    19:00 +16°C° 0,4 mm 2 mps 743 mmHg 87%
    20:00 +15°C° 0,4 mm 2 mps 743 mmHg 91%
    21:00 +14°C° 0,4 mm 2 mps 743 mmHg 93%
    22:00 +13°C° 0,4 mm 2 mps 743 mmHg 95%
    23:00 +12°C° 0,4 mm 2 mps 744 mmHg 97%

    27 Junio, Miércoles

    Tiempo Temperatura Precipitaciones Viento Presión Humedad
    00:00 +12°C° 0 mm 2 mps 744 mmHg 97%
    01:00 +10°C° 0 mm 2 mps 744 mmHg 97%
    02:00 +10°C° 0 mm 2 mps 744 mmHg 98%
    03:00 +10°C° 0 mm 2 mps 744 mmHg 98%
    04:00 +9°C° 0 mm 2 mps 744 mmHg 98%
    05:00 +9°C° 0 mm 2 mps 744 mmHg 98%
    06:00 +12°C° 0 mm 2 mps 744 mmHg 95%
    07:00 +12°C° 0 mm 3 mps 745 mmHg 92%
    08:00 +14°C° 0 mm 3 mps 745 mmHg 89%
    09:00 +16°C° 0,1 mm 3 mps 745 mmHg 82%
    10:00 +18°C° 0,1 mm 3 mps 745 mmHg 74%
    11:00 +20°C° 0,1 mm 4 mps 746 mmHg 67%
    12:00 +20°C° 0,4 mm 4 mps 746 mmHg 66%
    13:00 +21°C° 0,4 mm 4 mps 746 mmHg 65%
    14:00 +22°C° 0,4 mm 4 mps 746 mmHg 64%
    15:00 +21°C° 0,4 mm 4 mps 746 mmHg 68%
    16:00 +21°C° 0,4 mm 4 mps 746 mmHg 72%
    17:00 +21°C° 0,4 mm 4 mps 746 mmHg 75%
    18:00 +20°C° 0,2 mm 4 mps 746 mmHg 80%
    19:00 +19°C° 0,2 mm 4 mps 746 mmHg 85%
    20:00 +18°C° 0,2 mm 3 mps 746 mmHg 89%
    21:00 +17°C° 0 mm 3 mps 746 mmHg 91%
    22:00 +16°C° 0 mm 3 mps 746 mmHg 93%
    23:00 +16°C° 0 mm 3 mps 746 mmHg 94%

    28 Junio, Jueves

    Tiempo Temperatura Precipitaciones Viento Presión Humedad
    00:00 +14°C° 0 mm 3 mps 746 mmHg 94%
    01:00 +14°C° 0 mm 3 mps 746 mmHg 95%
    02:00 +14°C° 0 mm 3 mps 745 mmHg 95%
    03:00 +14°C° 0 mm 4 mps 745 mmHg 95%
    04:00 +14°C° 0 mm 4 mps 745 mmHg 95%
    05:00 +14°C° 0 mm 4 mps 745 mmHg 96%
    06:00 +15°C° 0,1 mm 5 mps 744 mmHg 94%
    07:00 +16°C° 0,1 mm 5 mps 744 mmHg 92%
    08:00 +17°C° 0,1 mm 5 mps 744 mmHg 91%
    09:00 +19°C° 0,3 mm 6 mps 743 mmHg 87%
    10:00 +20°C° 0,3 mm 6 mps 743 mmHg 83%
    11:00 +21°C° 0,3 mm 7 mps 743 mmHg 80%
    12:00 +22°C° 0,3 mm 7 mps 742 mmHg 79%
    13:00 +23°C° 0,3 mm 7 mps 742 mmHg 77%
    14:00 +23°C° 0,3 mm 7 mps 741 mmHg 76%
    15:00 +23°C° 1,4 mm 7 mps 741 mmHg 80%
    16:00 +22°C° 1,4 mm 6 mps 741 mmHg 84%
    17:00 +21°C° 1,4 mm 6 mps 740 mmHg 88%
    18:00 +21°C° 2,1 mm 6 mps 740 mmHg 89%
    19:00 +20°C° 2,1 mm 6 mps 739 mmHg 91%
    20:00 +20°C° 2,1 mm 5 mps 739 mmHg 93%
    21:00 +20°C° 1,5 mm 5 mps 739 mmHg 94%
    22:00 +20°C° 1,5 mm 5 mps 739 mmHg 95%
    23:00 +20°C° 1,5 mm 5 mps 738 mmHg 95%

    29 Junio, Viernes

    Tiempo Temperatura Precipitaciones Viento Presión Humedad
    00:00 +20°C° 0,2 mm 5 mps 738 mmHg 95%
    01:00 +20°C° 0,2 mm 5 mps 738 mmHg 95%
    02:00 +20°C° 0,2 mm 4 mps 737 mmHg 95%
    03:00 +19°C° 0,1 mm 4 mps 737 mmHg 96%
    04:00 +19°C° 0,1 mm 4 mps 737 mmHg 97%
    05:00 +19°C° 0,1 mm 4 mps 736 mmHg 97%
    06:00 +20°C° 0,1 mm 4 mps 736 mmHg 96%
    07:00 +20°C° 0,1 mm 4 mps 736 mmHg 95%
    08:00 +20°C° 0,1 mm 4 mps 736 mmHg 94%
    09:00 +21°C° 0,2 mm 3 mps 736 mmHg 91%
    10:00 +22°C° 0,2 mm 3 mps 736 mmHg 88%
    11:00 +24°C° 0,2 mm 3 mps 736 mmHg 85%
    12:00 +24°C° 0,7 mm 3 mps 736 mmHg 83%
    13:00 +25°C° 0,7 mm 3 mps 736 mmHg 81%
    14:00 +25°C° 0,7 mm 3 mps 736 mmHg 79%
    15:00 +25°C° 0,3 mm 3 mps 736 mmHg 79%
    16:00 +25°C° 0,3 mm 3 mps 736 mmHg 78%
    17:00 +25°C° 0,3 mm 3 mps 735 mmHg 78%
    18:00 +24°C° 0,1 mm 3 mps 735 mmHg 81%
    19:00 +23°C° 0,1 mm 2 mps 735 mmHg 84%
    20:00 +21°C° 0,1 mm 2 mps 735 mmHg 88%
    21:00 +20°C° 0 mm 2 mps 735 mmHg 90%
    22:00 +19°C° 0 mm 2 mps 735 mmHg 93%
    23:00 +18°C° 0 mm 2 mps 736 mmHg 95%
    Mostrar más